Location: Unspecified
(58.9933°N, 5.6375°E)
Time: 12:49:01
(UTC+02:00)

Cosmos 2058 - Pass Details

Date: 27 January 2018
Orbit: 564 x 584 km, 82.5° (Epoch: 21 May)

Event Time Altitude Azimuth Distance (km) Brightness Sun altitude
Rises 20:04:00 0° 223° (SW) 2,801 6.9 -25.1°
Reaches altitude 10° 20:06:24 10° 234° (SW) 1,908 6.1 -25.4°
Maximum altitude 20:10:09 30° 297° (WNW) 1,059 4.8 -25.9°
Drops below altitude 10° 20:13:55 10° 359° (N) 1,922 5.7 -26.4°
Enters shadow 20:14:29 - 3° (N) 2,123 5.9 -26.4°
